Washington, MO

5:47 PM CDT on March 24, 2017 (GMT -0500)
Washington

Weather History for KFYG - January, 2013

Change the Weather History Date:

Sunday, January 6, 2013

  Actual Average (KSUS) Record (KSUS)
Temperature  
Mean Temperature 31 °F -  
Max Temperature 39 °F 38 °F 45 °F (2016)
Min Temperature 23 °F 21 °F 1 °F (2017)
Degree Days  
Heating Degree Days 34    
Moisture  
Dew Point 25 °F    
Average Humidity 75    
Maximum Humidity 100    
Minimum Humidity 52    
Precipitation  
Precipitation 0.00 in - - ()
Sea Level Pressure  
Sea Level Pressure 30.25 in    
Wind  
Wind Speed 9 mph (WNW)    
Max Wind Speed 22 mph    
Max Gust Speed 28 mph    
Visibility 10 miles    
Events      
Averages and records for this station are not official NWS values.
T = Trace of Precipitation, MM = Missing Value Source: NWS Daily Summary

Daily Weather History Graph

Daily Weather History Graph

Search for Another Location

Airport or City:

Trip Planner

Search our weather history database for the weather conditions in past years. The results will help you decide how hot, cold, wet, or windy it might be!

Date:

Astronomy

Jan. 06, 2013 Rise Set
Actual Time 7:21 AM CST 4:58 PM CST
Civil Twilight 6:52 AM CST 5:27 PM CST
Nautical Twilight 6:19 AM CST 6:00 PM CST
Astronomical Twilight 5:47 AM CST 6:32 PM CST
Moon 1:38 AM CST (1/6) 12:24 PM CST (1/6)
Length of Visible Light 10h 35m
Length of Day
9h 36m
Waning Crescent, 33% of the Moon is Illuminated
Jan 6
Waning Crescent
Jan 11
New
Jan 18
First Quarter
Jan 26
Full
Feb 3
Last Quarter

Hourly Weather History & Observations

Time (CST) Temp. Windchill Dew Point Humidity Pressure Visibility Wind Dir Wind Speed Gust Speed Precip Events Conditions
12:15 AM 39.2 °F 33.6 °F 32.0 °F 75% 30.10 in 10.0 mi SW 8.1 mph - N/A   Overcast
12:35 AM 39.2 °F 34.2 °F 32.0 °F 75% 30.10 in 10.0 mi WSW 6.9 mph - N/A   Overcast
12:55 AM 39.2 °F 35.0 °F 32.0 °F 75% 30.10 in 10.0 mi West 5.8 mph - N/A   Overcast
1:15 AM 39.2 °F 32.5 °F 32.0 °F 75% 30.10 in 10.0 mi West 10.4 mph 16.1 mph N/A   Overcast
1:35 AM 39.2 °F 32.0 °F 32.0 °F 75% 30.11 in 10.0 mi WNW 11.5 mph 19.6 mph N/A   Overcast
1:55 AM 39.2 °F 33.6 °F 32.0 °F 75% 30.11 in 10.0 mi West 8.1 mph - N/A   Scattered Clouds
2:15 AM 37.4 °F 31.4 °F 32.0 °F 81% 30.11 in 10.0 mi WNW 8.1 mph - N/A   Clear
2:35 AM 37.4 °F 31.4 °F 32.0 °F 81% 30.12 in 10.0 mi WNW 8.1 mph - N/A   Clear
2:55 AM 37.4 °F 30.8 °F 32.0 °F 81% 30.13 in 10.0 mi WNW 9.2 mph - N/A   Clear
3:15 AM 35.6 °F 29.2 °F 30.2 °F 81% 30.12 in 10.0 mi WNW 8.1 mph - N/A   Clear
3:35 AM 35.6 °F 29.2 °F 30.2 °F 81% 30.12 in 10.0 mi WNW 8.1 mph - N/A   Clear
3:55 AM 35.6 °F 29.9 °F 28.4 °F 75% 30.12 in 10.0 mi West 6.9 mph - N/A   Clear
4:15 AM 33.8 °F 28.6 °F 28.4 °F 81% 30.12 in 10.0 mi WNW 5.8 mph - N/A   Clear
4:35 AM 33.8 °F 30.8 °F 28.4 °F 81% 30.12 in 10.0 mi West 3.5 mph - N/A   Clear
4:55 AM 32.0 °F 26.4 °F 28.4 °F 87% 30.12 in 10.0 mi WNW 5.8 mph - N/A   Partly Cloudy
5:15 AM 32.0 °F 24.8 °F 26.6 °F 80% 30.13 in 10.0 mi WNW 8.1 mph 18.4 mph N/A   Mostly Cloudy
5:35 AM 32.0 °F 22.5 °F 26.6 °F 80% 30.14 in 10.0 mi WNW 12.7 mph 20.7 mph N/A   Overcast
5:55 AM 32.0 °F 21.2 °F 26.6 °F 80% 30.16 in 10.0 mi WNW 16.1 mph 24.2 mph N/A   Mostly Cloudy
6:15 AM 32.0 °F 19.5 °F 26.6 °F 80% 30.17 in 10.0 mi WNW 21.9 mph 26.5 mph N/A   Overcast
6:35 AM 32.0 °F 20.8 °F 23.0 °F 69% 30.18 in 10.0 mi NW 17.3 mph 27.6 mph N/A   Overcast
6:55 AM 32.0 °F 22.1 °F 23.0 °F 69% 30.20 in 10.0 mi NW 13.8 mph 27.6 mph N/A   Overcast
7:15 AM 32.0 °F 22.1 °F 23.0 °F 69% 30.21 in 10.0 mi WNW 13.8 mph - N/A   Overcast
7:35 AM 32.0 °F 24.2 °F 23.0 °F 69% 30.22 in 10.0 mi WNW 9.2 mph - N/A   Overcast
7:55 AM 32.0 °F 23.6 °F 23.0 °F 69% 30.22 in 10.0 mi WNW 10.4 mph - N/A   Overcast
8:15 AM 32.0 °F 24.2 °F 23.0 °F 69% 30.23 in 10.0 mi WNW 9.2 mph - N/A   Overcast
8:35 AM 32.0 °F 22.5 °F 23.0 °F 69% 30.24 in 10.0 mi WNW 12.7 mph - N/A   Overcast
8:55 AM 32.0 °F 23.0 °F 23.0 °F 69% 30.25 in 10.0 mi WNW 11.5 mph - N/A   Overcast
9:15 AM 32.0 °F 23.0 °F 23.0 °F 69% 30.26 in 10.0 mi WNW 11.5 mph 20.7 mph N/A   Overcast
9:35 AM 32.0 °F 22.1 °F 23.0 °F 69% 30.27 in 10.0 mi WNW 13.8 mph 17.3 mph N/A   Overcast
9:55 AM 32.0 °F 21.6 °F 23.0 °F 69% 30.28 in 10.0 mi WNW 15.0 mph - N/A   Overcast
10:15 AM 32.0 °F 22.5 °F 24.8 °F 75% 30.29 in 10.0 mi NW 12.7 mph 19.6 mph N/A   Overcast
10:35 AM 32.0 °F 22.1 °F 24.8 °F 75% 30.29 in 10.0 mi WNW 13.8 mph - N/A   Overcast
11:15 AM 32.0 °F 23.0 °F 23.0 °F 69% 30.30 in 10.0 mi WNW 11.5 mph - N/A   Mostly Cloudy
11:35 AM 32.0 °F 22.5 °F 23.0 °F 69% 30.29 in 10.0 mi WNW 12.7 mph - N/A   Mostly Cloudy
11:55 AM 32.0 °F 21.2 °F 24.8 °F 75% 30.29 in 10.0 mi WNW 16.1 mph 24.2 mph N/A   Scattered Clouds
12:15 PM 32.0 °F 20.8 °F 24.8 °F 75% 30.29 in 10.0 mi WNW 17.3 mph 23.0 mph N/A   Scattered Clouds
12:35 PM 32.0 °F 22.1 °F 24.8 °F 75% 30.28 in 10.0 mi WNW 13.8 mph 20.7 mph N/A   Partly Cloudy
12:55 PM 33.8 °F 25.3 °F 24.8 °F 70% 30.28 in 10.0 mi West 11.5 mph 16.1 mph N/A   Clear
1:15 PM 33.8 °F 23.5 °F 23.0 °F 65% 30.28 in 10.0 mi WNW 16.1 mph 21.9 mph N/A   Clear
1:35 PM 33.8 °F 24.8 °F 23.0 °F 65% 30.29 in 10.0 mi WNW 12.7 mph 16.1 mph N/A   Clear
1:55 PM 33.8 °F 23.9 °F 23.0 °F 65% 30.29 in 10.0 mi WNW 15.0 mph 20.7 mph N/A   Clear
2:15 PM 35.6 °F 27.1 °F 23.0 °F 60% 30.30 in 10.0 mi WNW 12.7 mph 20.7 mph N/A   Clear
3:15 PM 37.4 °F 31.4 °F 23.0 °F 56% 30.31 in 10.0 mi West 8.1 mph - N/A   Clear
3:35 PM 37.4 °F 32.1 °F 23.0 °F 56% 30.32 in 10.0 mi West 6.9 mph - N/A   Clear
4:15 PM 35.6 °F 30.7 °F 21.2 °F 56% 30.33 in 10.0 mi West 5.8 mph - N/A   Clear
4:35 PM 35.6 °F 29.9 °F 19.4 °F 52% 30.34 in 10.0 mi WNW 6.9 mph - N/A   Clear
4:55 PM 35.6 °F 30.7 °F 19.4 °F 52% 30.34 in 10.0 mi WNW 5.8 mph - N/A   Clear
5:15 PM 33.8 °F - 19.4 °F 56% 30.34 in 10.0 mi Calm Calm - N/A   Clear
5:35 PM 33.8 °F 30.8 °F 23.0 °F 65% 30.35 in 10.0 mi North 3.5 mph - N/A   Clear
5:55 PM 33.8 °F - 21.2 °F 60% 30.36 in 10.0 mi Calm Calm - N/A   Clear
6:15 PM 32.0 °F - 24.8 °F 75% 30.36 in 10.0 mi Calm Calm - N/A   Clear
6:35 PM 32.0 °F - 23.0 °F 69% 30.36 in 10.0 mi Calm Calm - N/A   Clear
6:55 PM 30.2 °F - 23.0 °F 75% 30.37 in 10.0 mi Calm Calm - N/A   Clear
7:35 PM 26.6 °F - 23.0 °F 86% 30.37 in 10.0 mi Calm Calm - N/A   Clear
7:55 PM 26.6 °F - 23.0 °F 86% 30.36 in 10.0 mi Calm Calm - N/A   Clear
8:15 PM 26.6 °F - 23.0 °F 86% 30.37 in 10.0 mi Calm Calm - N/A   Clear
9:15 PM 24.8 °F - 23.0 °F 93% 30.37 in 10.0 mi Calm Calm - N/A   Clear
9:35 PM 24.8 °F - 23.0 °F 93% 30.37 in 10.0 mi Calm Calm - N/A   Clear
9:55 PM 24.8 °F - 23.0 °F 93% 30.37 in 10.0 mi Calm Calm - N/A   Clear
10:15 PM 24.8 °F - 23.0 °F 93% 30.37 in 10.0 mi Calm Calm - N/A   Clear
10:35 PM 24.8 °F - 23.0 °F 93% 30.37 in 10.0 mi Calm Calm - N/A   Clear
10:55 PM 23.0 °F - 21.2 °F 93% 30.38 in 10.0 mi Calm Calm - N/A   Clear
11:35 PM 23.0 °F - 23.0 °F 100% 30.38 in 10.0 mi Calm Calm - N/A   Clear
11:55 PM 23.0 °F - 19.4 °F 86% 30.38 in 10.0 mi Calm Calm - N/A   Clear